[[{"header":{"parameterUnit":"m.s-1","parameterCategory":1,"la1":30.2991,"la2":30.254,"lo1":-89.0895,"lo2":-89.0444,"dy":0.0017,"dx":0.0017,"nx":28,"ny":28,"refTime":"2025-08-01T03:00:00:Z","depth":0,"parameterNumber":2,"parameterNumberName":"U-component_of_WINDS"},"data":[0,0,0,0,0,0,0,0,0,0,0,0,0,0,0,0,0,0,0,0,0,0,0,0,0,0,0,0,0,0,0,0,0,0,0,0,0,0,0,0,0,0,0,0,0,0,0,0,0,0,0,0,0,0,0,0,0,0,0.3003,0.3003,0,0.3031,0.3031,0.3032,0.3037,0.3037,0.3037,0.3037,0.3067,0.3068,0.3069,0,0,0,0,0,0,0,0,0,0,0,0,0,0.2957,0.2957,0.3003,0.3003,0.3003,0.3031,0.3031,0.3032,0.3037,0.3037,0.3037,0.3037,0.3067,0.3068,0.3069,0,0,0,0,0,0,0,0,0,0,0,0,0,0.298,0.2958,0.3003,0.3009,0.301,0.3031,0.3031,0.3032,0.3037,0.3037,0.3037,0.3036,0.3066,0.3068,0.3069,0.3085,0,0,0.3074,0.3074,0,0,0,0,0,0,0,0,0.2979,0.2982,0.3008,0.3009,0.301,0.303,0.3026,0.305,0.3037,0.3027,0.3037,0.3036,0.3055,0.3058,0.3064,0.3087,0.3088,0.3074,0.3075,0.3076,0.3076,0,0,0,0,0,0,0,0.2977,0.2981,0.3014,0.3009,0.301,0.3012,0.3015,0.3031,0.3043,0.3028,0.3029,0.3032,0.3056,0.3062,0.3064,0.3088,0.3074,0.3075,0.3076,0.3077,0.3129,0.313,0,0,0,0,0,0,0.2974,0.2979,0.3013,0.3015,0.2993,0.3013,0.3017,0.3024,0.3043,0.3045,0.3032,0.3032,0.306,0.3063,0.3065,0.3087,0.3076,0.3077,0.3078,0.3129,0.3129,0.313,0,0,0,0,0,0,0.2973,0.2977,0.3012,0.2997,0.3002,0.3014,0.3023,0.3025,0.3031,0.3045,0.3048,0.3036,0.306,0.3063,0.3081,0.3088,0.3078,0.3079,0.3128,0.3129,0.313,0.313,0,0,0,0,0,0,0.2972,0.2976,0.2982,0.2997,0.3003,0.3026,0.3023,0.3026,0.3034,0.3034,0.305,0.3052,0.306,0.3079,0.3082,0.309,0.308,0.3128,0.3129,0.3129,0.3129,0.313,0.3131,0,0,0,0,0,0.297,0.298,0.2982,0.2986,0.3009,0.3026,0.3029,0.3037,0.3034,0.304,0.305,0.3052,0.3087,0.308,0.3085,0.3093,0.3127,0.3128,0.3129,0.3129,0.313,0.3131,0,0,0,0,0,0,0.2965,0.2982,0.2984,0.3,0.3012,0.3027,0.3035,0.3038,0.305,0.305,0.306,0.3063,0.3081,0.3089,0.3081,0.3111,0.3107,0.3109,0.3105,0.3107,0.3108,0.3106,0.3081,0,0,0,0,0,0.2966,0.2977,0.2992,0.3005,0.301,0.3022,0.3029,0.3034,0.3047,0.3052,0.3062,0.3075,0.309,0.3098,0.3112,0.3131,0.3135,0.3139,0.314,0.3141,0.3142,0.3155,0.3158,0.3133,0.3133,0.3133,0,0,0.2967,0.2978,0.2985,0.3004,0.3013,0.3027,0.3026,0.3039,0.3049,0.3054,0.3071,0.308,0.3095,0.3114,0.3123,0.3121,0.3151,0.3142,0.3143,0.3144,0.3157,0.3159,0.3161,0.3134,0.3134,0.3134,0,0,0.2977,0.2986,0.2998,0.3008,0.3023,0.3031,0.3034,0.305,0.3056,0.3073,0.3078,0.3091,0.3115,0.3126,0.3135,0.3152,0.3155,0.3156,0.3162,0.3175,0.3177,0.3179,0.3186,0.3189,0.3158,0.3158,0.3158,0,0.2977,0.2996,0.3004,0.3018,0.3027,0.3033,0.3046,0.3056,0.3074,0.3081,0.3079,0.3111,0.3121,0.3144,0.3148,0.3154,0.316,0.3154,0.3176,0.3178,0.3179,0.3187,0.319,0.3158,0.3158,0.3158,0.3158,0,0.2997,0.301,0.3018,0.3036,0.3047,0.306,0.3071,0.3081,0.3086,0.3095,0.3114,0.3127,0.3145,0.3151,0.3155,0.3175,0.3174,0.3174,0.317,0.3182,0.3189,0.3192,0.3158,0.3158,0.3158,0.3158,0,0,0.3002,0.3027,0.303,0.3039,0.3057,0.3068,0.3083,0.31,0.3109,0.3123,0.3136,0.3158,0.3158,0.3169,0.3175,0.3186,0.3201,0.3185,0.3185,0.3189,0.3226,0.3227,0.323,0.3204,0.3204,0.3205,0.3226,0,0.3015,0.3041,0.305,0.3072,0.3085,0.3092,0.3106,0.3119,0.3128,0.3142,0.3153,0.3168,0.3167,0.3174,0.3185,0.3197,0.3209,0.3195,0.3218,0.3219,0.3215,0.3234,0.3233,0.3253,0.3228,0.3229,0.3229,0,0.3032,0.3047,0.307,0.3089,0.3095,0.3106,0.3124,0.3137,0.3154,0.316,0.3173,0.3179,0.3197,0.3192,0.3218,0.3209,0.3219,0.3227,0.3228,0.323,0.3225,0.3238,0.3259,0.3262,0.3234,0.3233,0.3233,0,0.3036,0.3061,0.3079,0.3087,0.3108,0.3117,0.3127,0.3143,0.3153,0.317,0.3177,0.3195,0.3205,0.322,0.3232,0.3227,0.3258,0.3254,0.3265,0.3265,0.3271,0.327,0.3295,0.3276,0.3276,0.3276,0.3276,0,0.3049,0.3063,0.3081,0.3092,0.3109,0.312,0.3138,0.3148,0.3163,0.3177,0.3185,0.3198,0.3213,0.3229,0.3239,0.326,0.3264,0.3271,0.3274,0.3271,0.327,0.3278,0.3277,0.3277,0.3277,0.3277,0.3276,0,0.3055,0.3067,0.3088,0.3107,0.3113,0.3125,0.3143,0.3155,0.3165,0.3184,0.3189,0.3206,0.3225,0.3239,0.3264,0.3271,0.3295,0.3296,0.3289,0.329,0.3301,0.3301,0.3332,0.3337,0.3314,0.3314,0.3315,0,0.3063,0.3074,0.3096,0.3106,0.3116,0.3132,0.3144,0.3156,0.3168,0.3189,0.3199,0.322,0.3237,0.3269,0.3284,0.3304,0.3307,0.3317,0.331,0.3308,0.3309,0.3309,0.3311,0.3318,0.3318,0.3318,0.3318,0,0.3076,0.3082,0.3098,0.3117,0.313,0.3145,0.3161,0.3169,0.3185,0.3198,0.3219,0.3232,0.3259,0.328,0.3302,0.3314,0.332,0.3321,0.3325,0.3322,0.3318,0.3322,0.3293,0.332,0.3319,0.3319,0.3319,0.3319,0.3084,0.3096,0.3113,0.3131,0.3145,0.316,0.3173,0.3185,0.3202,0.3225,0.3232,0.3254,0.3273,0.3304,0.3316,0.3335,0.3334,0.3339,0.3341,0.3342,0.3343,0.3315,0.3339,0.3339,0.3339,0.3339,0.3339,0,0.3099,0.3111,0.3128,0.3149,0.3165,0.3169,0.3187,0.3199,0.3218,0.3236,0.3253,0.3278,0.3299,0.3317,0.334,0.3352,0.3355,0.3357,0.3357,0.336,0.3342,0.3337,0.3354,0.3354,0.3354,0.3354,0.3354,0.3354,0.3108,0.3128,0.3137,0.3165,0.3177,0.3199,0.3209,0.3224,0.3238,0.3266,0.3284,0.3295,0.3314,0.3338,0.3359,0.3364,0.3373,0.3375,0.338,0.3363,0.3361,0.3359,0.3355,0.3376,0.3376,0.3397,0.3398,0.3398]},{"header":{"parameterUnit":"m.s-1","parameterCategory":1,"la1":30.2991,"la2":30.254,"lo1":-89.0895,"lo2":-89.0444,"dy":0.0017,"dx":0.0017,"nx":28,"ny":28,"refTime":"2025-08-01T03:00:00:Z","depth":0,"parameterNumber":3,"parameterNumberName":"V-component_of_WINDS"},"data":[0,0,0,0,0,0,0,0,0,0,0,0,0,0,0,0,0,0,0,0,0,0,0,0,0,0,0,0,0,0,0,0,0,0,0,0,0,0,0,0,0,0,0,0,0,0,0,0,0,0,0,0,0,0,0,0,0,0,-2.9171,-2.9171,0,-2.9187,-2.9187,-2.9187,-2.9167,-2.9166,-2.9165,-2.9165,-2.9179,-2.918,-2.9181,0,0,0,0,0,0,0,0,0,0,0,0,0,-2.9124,-2.9125,-2.9171,-2.9171,-2.9172,-2.9187,-2.9187,-2.9187,-2.9167,-2.9166,-2.9165,-2.9164,-2.9179,-2.918,-2.9181,0,0,0,0,0,0,0,0,0,0,0,0,0,-2.9143,-2.9126,-2.9171,-2.9163,-2.9163,-2.9186,-2.9187,-2.9187,-2.9167,-2.9166,-2.9165,-2.9164,-2.9178,-2.918,-2.9181,-2.9213,0,0,-2.9186,-2.9187,0,0,0,0,0,0,0,0,-2.9142,-2.9144,-2.9164,-2.9164,-2.9163,-2.9174,-2.9175,-2.9196,-2.9167,-2.9165,-2.9165,-2.9163,-2.9178,-2.918,-2.9185,-2.9214,-2.9214,-2.9186,-2.9187,-2.9188,-2.9189,0,0,0,0,0,0,0,-2.914,-2.9144,-2.9177,-2.9165,-2.9164,-2.9159,-2.9161,-2.9179,-2.9178,-2.9166,-2.9164,-2.9166,-2.9178,-2.9183,-2.9185,-2.9214,-2.9186,-2.9188,-2.9189,-2.9189,-2.9271,-2.9272,0,0,0,0,0,0,-2.914,-2.9143,-2.9177,-2.9178,-2.915,-2.9161,-2.9162,-2.9171,-2.9177,-2.9177,-2.9167,-2.9165,-2.9181,-2.9183,-2.9185,-2.9223,-2.9188,-2.919,-2.919,-2.927,-2.9271,-2.9272,0,0,0,0,0,0,-2.9139,-2.9143,-2.9176,-2.916,-2.9164,-2.9163,-2.9173,-2.9172,-2.9178,-2.9179,-2.9178,-2.9173,-2.918,-2.9183,-2.9207,-2.9223,-2.919,-2.9192,-2.9268,-2.927,-2.9272,-2.9298,0,0,0,0,0,0,-2.9138,-2.9143,-2.9155,-2.916,-2.9165,-2.9197,-2.9174,-2.9173,-2.9181,-2.9179,-2.9184,-2.9184,-2.918,-2.9204,-2.9208,-2.9225,-2.9193,-2.9267,-2.9269,-2.9271,-2.9296,-2.9301,-2.9305,0,0,0,0,0,-2.9136,-2.9162,-2.9156,-2.916,-2.918,-2.9198,-2.92,-2.9195,-2.9182,-2.9194,-2.9195,-2.9184,-2.9221,-2.9207,-2.9211,-2.9228,-2.9266,-2.9268,-2.9271,-2.9294,-2.93,-2.9305,0,0,0,0,0,0,-2.9157,-2.9162,-2.9156,-2.9183,-2.9191,-2.9195,-2.9209,-2.9202,-2.9212,-2.9209,-2.9202,-2.9204,-2.9229,-2.9231,-2.9215,-2.926,-2.9241,-2.9245,-2.9257,-2.9263,-2.9267,-2.9266,-2.9194,0,0,0,0,0,-2.9166,-2.918,-2.9184,-2.9208,-2.9212,-2.921,-2.9218,-2.9214,-2.922,-2.9223,-2.9225,-2.9232,-2.9246,-2.9254,-2.9267,-2.9297,-2.9298,-2.9311,-2.9315,-2.9319,-2.9322,-2.9338,-2.9344,-2.9281,-2.9281,-2.9281,0,0,-2.9182,-2.9186,-2.9196,-2.9212,-2.9217,-2.9233,-2.9213,-2.923,-2.9241,-2.9226,-2.9248,-2.925,-2.9257,-2.9284,-2.9296,-2.9287,-2.934,-2.9322,-2.9325,-2.9326,-2.9342,-2.9348,-2.9353,-2.9283,-2.9283,-2.9282,0,0,-2.9219,-2.9224,-2.9245,-2.9251,-2.9259,-2.9259,-2.9264,-2.9269,-2.927,-2.9293,-2.9282,-2.9295,-2.9318,-2.9324,-2.933,-2.9372,-2.9362,-2.9376,-2.9399,-2.9416,-2.9421,-2.9425,-2.944,-2.9445,-2.9379,-2.9379,-2.9379,0,-2.9238,-2.9262,-2.9257,-2.9275,-2.9283,-2.927,-2.9292,-2.9297,-2.9309,-2.9315,-2.9304,-2.9333,-2.9337,-2.9366,-2.9376,-2.9382,-2.9387,-2.9375,-2.942,-2.9425,-2.9429,-2.9443,-2.9448,-2.9381,-2.9381,-2.9381,-2.9381,0,-2.9285,-2.9301,-2.9317,-2.933,-2.9339,-2.9359,-2.9357,-2.9367,-2.9362,-2.9362,-2.9386,-2.9391,-2.9404,-2.9411,-2.9406,-2.9439,-2.9433,-2.9422,-2.9403,-2.9436,-2.945,-2.9455,-2.9383,-2.9383,-2.9382,-2.9382,0,0,-2.9335,-2.9345,-2.9351,-2.9357,-2.9366,-2.9379,-2.9398,-2.9412,-2.9421,-2.943,-2.9446,-2.9466,-2.9457,-2.9463,-2.9459,-2.9474,-2.9507,-2.9461,-2.9461,-2.9469,-2.9543,-2.9551,-2.9558,-2.9501,-2.9502,-2.9503,-2.9543,0,-2.9372,-2.9406,-2.9403,-2.9435,-2.945,-2.944,-2.9457,-2.9464,-2.9465,-2.9479,-2.948,-2.9494,-2.948,-2.9485,-2.9498,-2.95,-2.9521,-2.9497,-2.9515,-2.9516,-2.9513,-2.9564,-2.9573,-2.961,-2.9548,-2.9549,-2.9549,0,-2.942,-2.9432,-2.9466,-2.9473,-2.948,-2.9495,-2.9508,-2.9521,-2.9529,-2.9529,-2.9538,-2.9531,-2.9551,-2.9533,-2.956,-2.9543,-2.9551,-2.9553,-2.9554,-2.9555,-2.9534,-2.9566,-2.9622,-2.9627,-2.9557,-2.9557,-2.9556,0,-2.9453,-2.9477,-2.9501,-2.9506,-2.9516,-2.9527,-2.9531,-2.9539,-2.9548,-2.9559,-2.9565,-2.9578,-2.9585,-2.9595,-2.9593,-2.958,-2.9621,-2.9602,-2.9621,-2.9621,-2.9629,-2.9629,-2.9687,-2.9635,-2.9635,-2.9635,-2.9635,0,-2.9495,-2.9516,-2.9516,-2.953,-2.9554,-2.955,-2.9573,-2.9577,-2.9584,-2.9599,-2.959,-2.9604,-2.9601,-2.9615,-2.9613,-2.9636,-2.9639,-2.964,-2.9639,-2.964,-2.964,-2.9644,-2.9642,-2.9637,-2.9636,-2.9636,-2.9636,0,-2.9535,-2.9536,-2.9561,-2.9568,-2.9571,-2.9588,-2.9594,-2.9608,-2.9609,-2.9628,-2.9632,-2.9634,-2.965,-2.9649,-2.9667,-2.9666,-2.9695,-2.9691,-2.9692,-2.9691,-2.971,-2.9708,-2.9772,-2.978,-2.9724,-2.9725,-2.9725,0,-2.9561,-2.9577,-2.9587,-2.9597,-2.9602,-2.9618,-2.9627,-2.9625,-2.9635,-2.9647,-2.9659,-2.9675,-2.9687,-2.9714,-2.9716,-2.973,-2.9727,-2.9748,-2.9729,-2.973,-2.9727,-2.9726,-2.9727,-2.9752,-2.9752,-2.9753,-2.9753,0,-2.9608,-2.9608,-2.9622,-2.9636,-2.9648,-2.9659,-2.9669,-2.9677,-2.9676,-2.9688,-2.9705,-2.9715,-2.9734,-2.9749,-2.9763,-2.9768,-2.976,-2.976,-2.9765,-2.9766,-2.9765,-2.9766,-2.9702,-2.9758,-2.9757,-2.9757,-2.9757,-2.9757,-2.9642,-2.9656,-2.9665,-2.9681,-2.9689,-2.9699,-2.9712,-2.9716,-2.973,-2.9746,-2.9744,-2.9763,-2.9772,-2.979,-2.9796,-2.9811,-2.9803,-2.981,-2.9812,-2.9814,-2.9816,-2.9764,-2.9813,-2.9813,-2.9813,-2.9813,-2.9813,0,-2.9688,-2.9694,-2.9708,-2.9724,-2.9736,-2.973,-2.9741,-2.9752,-2.9769,-2.9778,-2.9791,-2.9811,-2.9826,-2.9831,-2.9846,-2.9857,-2.9854,-2.9861,-2.986,-2.9861,-2.9822,-2.9816,-2.9863,-2.9863,-2.9863,-2.9863,-2.9863,-2.9863,-2.9713,-2.9737,-2.9738,-2.9766,-2.9771,-2.979,-2.9798,-2.9807,-2.9814,-2.9837,-2.985,-2.9854,-2.9861,-2.9877,-2.9891,-2.9892,-2.9898,-2.9906,-2.9906,-2.9869,-2.9864,-2.9859,-2.9853,-2.9907,-2.9908,-2.9943,-2.9944,-2.9944]}]]